CXA8413 ZSAM-ZUCK

Flight info

Callsign CXA8413
Flight time 2h 11m
Altitude 34100
Route NUSPA7Y NUSPA W598 DABER W155 VETIB DCT NUVGA DCT XEBUL DCT MABAG DCT WYN G586 QP B330 ELKAL W179 SUMUN W3 ASIPO W678 SEGDA SEGDA1J
Aircraft B738/M-SDE2E3FGHIRWXY/LB1

Departure

Time 2026-04-24 11:56
Airport Xiamen Gaoqi International Airport (ZSAM)

Arrival

Time 2026-04-24 14:08
Airport Chongqing Jiangbei International Airport (ZUCK)
Time Latitude Longitude Altitude Speed Heading
2026-04-24 10:52 24.53631 118.12344 68 ft 0 kts 142°
2026-04-24 11:45 24.53639 118.12336 68 ft 2 kts 142°
2026-04-24 11:45 24.53651 118.12326 68 ft 2 kts 142°
2026-04-24 11:46 24.53663 118.12316 68 ft 2 kts 142°
2026-04-24 11:46 24.53672 118.12304 68 ft 2 kts 94°
2026-04-24 11:46 24.53669 118.12288 68 ft 2 kts 75°
2026-04-24 11:46 24.53666 118.12272 68 ft 2 kts 66°
2026-04-24 11:47 24.53659 118.12260 68 ft 0 kts 41°
2026-04-24 11:47 24.53657 118.12259 68 ft 0 kts 41°
2026-04-24 11:51 24.53682 118.12290 68 ft 15 kts 51°
2026-04-24 11:51 24.53753 118.12392 68 ft 16 kts 51°
2026-04-24 11:51 24.53862 118.12542 68 ft 34 kts 52°
2026-04-24 11:52 24.54007 118.12742 68 ft 29 kts 51°
2026-04-24 11:52 24.54113 118.12871 68 ft 9 kts
2026-04-24 11:52 24.54167 118.12814 68 ft 17 kts 317°
2026-04-24 11:52 24.54264 118.12850 68 ft 15 kts 52°
2026-04-24 11:53 24.54326 118.12936 68 ft 13 kts 51°
2026-04-24 11:53 24.54378 118.13010 68 ft 11 kts 52°
2026-04-24 11:53 24.54462 118.13129 68 ft 32 kts 51°
2026-04-24 11:53 24.54632 118.13367 68 ft 38 kts 52°
2026-04-24 11:54 24.54785 118.13583 68 ft 32 kts 51°
2026-04-24 11:54 24.54936 118.13791 68 ft 35 kts 52°
2026-04-24 11:54 24.55076 118.13985 68 ft 31 kts 50°
2026-04-24 11:54 24.55196 118.14154 68 ft 18 kts 37°
2026-04-24 11:55 24.55281 118.14140 68 ft 11 kts 324°
2026-04-24 11:55 24.55326 118.14078 68 ft 9 kts 281°
2026-04-24 11:55 24.55305 118.14013 68 ft 11 kts 233°
2026-04-24 11:55 24.55220 118.13895 68 ft 31 kts 232°
2026-04-24 11:56 24.54927 118.13489 68 ft 105 kts 231°
2026-04-24 11:56 24.54344 118.12667 69 ft 167 kts 231°
2026-04-24 11:56 24.53600 118.11565 611 ft 174 kts 234°
2026-04-24 11:56 24.52881 118.10482 1118 ft 187 kts 230°
2026-04-24 11:57 24.52019 118.09373 1677 ft 200 kts 229°
2026-04-24 11:57 24.51121 118.08142 2260 ft 212 kts 230°
2026-04-24 11:57 24.50191 118.06850 2914 ft 220 kts 231°
2026-04-24 11:57 24.49248 118.05536 3569 ft 229 kts 231°
2026-04-24 11:58 24.48447 118.04411 4182 ft 233 kts 232°
2026-04-24 11:58 24.47353 118.02886 5004 ft 236 kts 231°
2026-04-24 11:58 24.46485 118.01672 5619 ft 240 kts 232°
2026-04-24 11:58 24.45348 118.00214 6373 ft 242 kts 221°
2026-04-24 11:59 24.43850 117.99380 6997 ft 244 kts 187°
2026-04-24 11:59 24.42164 117.99257 7632 ft 251 kts 181°
2026-04-24 11:59 24.40383 117.99081 8365 ft 255 kts 185°
2026-04-24 11:59 24.38642 117.98862 9058 ft 261 kts 185°
2026-04-24 12:00 24.36825 117.98615 9809 ft 263 kts 189°
2026-04-24 12:00 24.35092 117.97932 10437 ft 269 kts 212°
2026-04-24 12:00 24.33742 117.96533 11095 ft 272 kts 232°
2026-04-24 12:00 24.32549 117.94822 11337 ft 296 kts 232°
2026-04-24 12:01 24.31233 117.92993 11594 ft 318 kts 232°
2026-04-24 12:01 24.29817 117.91028 12042 ft 335 kts 232°
2026-04-24 12:01 24.28361 117.88989 12603 ft 345 kts 232°
2026-04-24 12:01 24.26868 117.86899 13340 ft 349 kts 232°
2026-04-24 12:02 24.25361 117.84792 14063 ft 354 kts 231°
2026-04-24 12:02 24.23735 117.82772 14786 ft 358 kts 225°
2026-04-24 12:02 24.21955 117.80888 15496 ft 361 kts 223°
2026-04-24 12:02 24.20124 117.78964 16189 ft 365 kts 224°
2026-04-24 12:03 24.18314 117.77021 16854 ft 368 kts 224°
2026-04-24 12:03 24.16468 117.75038 17504 ft 371 kts 224°
2026-04-24 12:03 24.14633 117.73073 18132 ft 374 kts 224°
2026-04-24 12:03 24.12748 117.71053 18741 ft 378 kts 224°
2026-04-24 12:04 24.10892 117.69052 19327 ft 381 kts 226°
2026-04-24 12:04 24.09309 117.66688 19829 ft 386 kts 243°
2026-04-24 12:04 24.08269 117.64000 20460 ft 386 kts 248°
2026-04-24 12:04 24.07258 117.61240 20951 ft 391 kts 250°
2026-04-24 12:05 24.06547 117.58361 21428 ft 395 kts 263°
2026-04-24 12:05 24.06502 117.55377 21940 ft 396 kts 275°
2026-04-24 12:05 24.06782 117.52382 22434 ft 399 kts 277°
2026-04-24 12:05 24.07101 117.49327 22887 ft 402 kts 277°
2026-04-24 12:06 24.07417 117.46296 23351 ft 405 kts 277°
2026-04-24 12:06 24.07748 117.43240 23794 ft 408 kts 277°
2026-04-24 12:06 24.08094 117.40140 24230 ft 410 kts 277°
2026-04-24 12:06 24.08447 117.37026 24658 ft 413 kts 277°
2026-04-24 12:07 24.08802 117.33910 25066 ft 415 kts 277°
2026-04-24 12:07 24.09161 117.30780 25470 ft 417 kts 277°
2026-04-24 12:07 24.09524 117.27624 25997 ft 416 kts 277°
2026-04-24 12:07 24.09885 117.24496 26487 ft 415 kts 277°
2026-04-24 12:08 24.10245 117.21371 26953 ft 414 kts 277°
2026-04-24 12:08 24.10604 117.18262 27402 ft 413 kts 277°
2026-04-24 12:08 24.10965 117.15128 27838 ft 412 kts 276°
2026-04-24 12:08 24.11323 117.12026 28252 ft 411 kts 276°
2026-04-24 12:09 24.11681 117.08918 28635 ft 411 kts 277°
2026-04-24 12:09 24.12036 117.05823 28990 ft 410 kts 277°
2026-04-24 12:09 24.12388 117.02763 29319 ft 410 kts 277°
2026-04-24 12:09 24.12745 116.99648 29643 ft 410 kts 277°
2026-04-24 12:10 24.13100 116.96547 29990 ft 409 kts 277°
2026-04-24 12:10 24.13452 116.93469 30339 ft 408 kts 278°
2026-04-24 12:10 24.13803 116.90393 30694 ft 406 kts 278°
2026-04-24 12:11 24.14446 116.84272 31317 ft 404 kts 275°
2026-04-24 12:11 24.14564 116.81194 31588 ft 404 kts 272°
2026-04-24 12:11 24.14643 116.78164 31822 ft 404 kts 273°
2026-04-24 12:11 24.14756 116.75078 31997 ft 406 kts 274°
2026-04-24 12:12 24.14884 116.71980 32198 ft 406 kts 274°
2026-04-24 12:12 24.15048 116.67831 32443 ft 408 kts 274°
2026-04-24 12:12 24.15129 116.65771 32563 ft 409 kts 274°
2026-04-24 12:12 24.15251 116.62648 32741 ft 410 kts 274°
2026-04-24 12:13 24.15374 116.59556 32901 ft 412 kts 274°
2026-04-24 12:13 24.15499 116.56409 33079 ft 412 kts 274°
2026-04-24 12:13 24.15621 116.53301 33476 ft 407 kts 274°
2026-04-24 12:13 24.15740 116.50268 33639 ft 407 kts 274°
2026-04-24 12:14 24.15864 116.47120 33824 ft 407 kts 274°
2026-04-24 12:14 24.15984 116.44026 33989 ft 408 kts 274°
2026-04-24 12:14 24.16150 116.40936 34132 ft 408 kts 276°
2026-04-24 12:15 24.16660 116.34681 34177 ft 417 kts 276°
2026-04-24 12:15 24.17143 116.28304 34174 ft 424 kts 275°
2026-04-24 12:16 24.17629 116.21829 34174 ft 430 kts 275°
2026-04-24 12:16 24.18116 116.15282 34174 ft 437 kts 275°
2026-04-24 12:17 24.18610 116.08591 34173 ft 442 kts 275°
2026-04-24 12:17 24.19101 116.01901 34173 ft 441 kts 275°
2026-04-24 12:18 24.19586 115.95232 34174 ft 440 kts 275°
2026-04-24 12:18 24.20071 115.88529 34174 ft 440 kts 275°
2026-04-24 12:19 24.20551 115.81865 34174 ft 441 kts 275°
2026-04-24 12:19 24.21029 115.75178 34174 ft 441 kts 275°
2026-04-24 12:20 24.21503 115.68506 34174 ft 440 kts 275°
2026-04-24 12:20 24.21975 115.61818 34174 ft 440 kts 275°
2026-04-24 12:21 24.22443 115.55149 34174 ft 440 kts 275°
2026-04-24 12:21 24.22912 115.48425 34174 ft 440 kts 275°
2026-04-24 12:22 24.23390 115.41786 34174 ft 440 kts 276°
2026-04-24 12:22 24.23999 115.35101 34174 ft 440 kts 277°
2026-04-24 12:23 24.24502 115.29421 34174 ft 440 kts 276°
2026-04-24 12:23 24.25088 115.22742 34174 ft 440 kts 276°
2026-04-24 12:24 24.25669 115.16080 34174 ft 440 kts 276°
2026-04-24 12:24 24.26246 115.09412 34174 ft 440 kts 276°
2026-04-24 12:25 24.26820 115.02750 34174 ft 439 kts 276°
2026-04-24 12:25 24.27388 114.96120 34174 ft 439 kts 276°
2026-04-24 12:26 24.27953 114.89491 34174 ft 439 kts 276°
2026-04-24 12:26 24.28520 114.82822 34174 ft 439 kts 276°
2026-04-24 12:27 24.29107 114.76202 34174 ft 439 kts 276°
2026-04-24 12:27 24.29691 114.69563 34148 ft 438 kts 276°
2026-04-24 12:28 24.30272 114.62910 34147 ft 437 kts 276°
2026-04-24 12:28 24.30848 114.56285 34147 ft 438 kts 276°
2026-04-24 12:29 24.31425 114.49630 34147 ft 438 kts 276°
2026-04-24 12:29 24.32045 114.43016 34147 ft 438 kts 277°
2026-04-24 12:30 24.32671 114.36371 34147 ft 438 kts 277°
2026-04-24 12:30 24.33289 114.29725 34147 ft 438 kts 276°
2026-04-24 12:31 24.33906 114.23071 34147 ft 438 kts 276°
2026-04-24 12:31 24.34517 114.16434 34147 ft 438 kts 276°
2026-04-24 12:32 24.35131 114.09787 34147 ft 438 kts 277°
2026-04-24 12:32 24.35834 114.03159 34147 ft 438 kts 277°
2026-04-24 12:33 24.36535 113.96562 34147 ft 438 kts 277°
2026-04-24 12:33 24.37229 113.89940 34147 ft 438 kts 277°
2026-04-24 12:34 24.37925 113.83282 34147 ft 438 kts 277°
2026-04-24 12:34 24.38613 113.76655 34147 ft 438 kts 277°
2026-04-24 12:35 24.39296 113.70053 34147 ft 438 kts 277°
2026-04-24 12:35 24.39980 113.63405 34147 ft 438 kts 277°
2026-04-24 12:36 24.40657 113.56792 34147 ft 438 kts 277°
2026-04-24 12:36 24.41338 113.50121 34147 ft 438 kts 277°
2026-04-24 12:37 24.42009 113.43508 34147 ft 438 kts 277°
2026-04-24 12:37 24.42689 113.36875 34147 ft 438 kts 277°
2026-04-24 12:38 24.43377 113.30242 34147 ft 438 kts 277°
2026-04-24 12:38 24.44054 113.23642 34147 ft 438 kts 277°
2026-04-24 12:39 24.45414 113.10324 34147 ft 438 kts 277°
2026-04-24 12:40 24.46082 113.03725 34147 ft 438 kts 277°
2026-04-24 12:40 24.46748 112.97083 34147 ft 438 kts 277°
2026-04-24 12:41 24.47408 112.90436 34147 ft 437 kts 278°
2026-04-24 12:41 24.48059 112.83868 34147 ft 435 kts 278°
2026-04-24 12:42 24.48707 112.77293 34147 ft 433 kts 278°
2026-04-24 12:42 24.49353 112.70714 34147 ft 433 kts 278°
2026-04-24 12:43 24.49997 112.64166 34147 ft 434 kts 278°
2026-04-24 12:43 24.50643 112.57554 34147 ft 434 kts 278°
2026-04-24 12:44 24.51280 112.51014 34147 ft 433 kts 278°
2026-04-24 12:44 24.51919 112.44413 34147 ft 433 kts 278°
2026-04-24 12:45 24.52554 112.37830 34147 ft 433 kts 278°
2026-04-24 12:45 24.53183 112.31280 34147 ft 433 kts 278°
2026-04-24 12:46 24.53812 112.24696 34147 ft 433 kts 278°
2026-04-24 12:46 24.54434 112.18155 34147 ft 433 kts 278°
2026-04-24 12:47 24.55060 112.11542 34147 ft 433 kts 278°
2026-04-24 12:47 24.55675 112.05006 34146 ft 433 kts 278°
2026-04-24 12:48 24.56297 111.98380 34142 ft 434 kts 278°
2026-04-24 12:48 24.56909 111.91823 34137 ft 434 kts 278°
2026-04-24 12:49 24.57519 111.85255 34132 ft 434 kts 278°
2026-04-24 12:49 24.58130 111.78648 34128 ft 434 kts 278°
2026-04-24 12:50 24.58734 111.72076 34125 ft 434 kts 278°
2026-04-24 12:50 24.59334 111.65517 34122 ft 434 kts 278°
2026-04-24 12:51 24.59934 111.58933 34120 ft 434 kts 278°
2026-04-24 12:51 24.60530 111.52366 34120 ft 434 kts 278°
2026-04-24 12:52 24.61125 111.45771 34120 ft 434 kts 278°
2026-04-24 12:52 24.61715 111.39197 34120 ft 434 kts 278°
2026-04-24 12:53 24.62303 111.32616 34120 ft 434 kts 277°
2026-04-24 12:53 24.62885 111.26015 34120 ft 434 kts 277°
2026-04-24 12:54 24.63452 111.19447 34120 ft 434 kts 277°
2026-04-24 12:54 24.64019 111.12859 34120 ft 434 kts 277°
2026-04-24 12:55 24.64584 111.06261 34120 ft 433 kts 277°
2026-04-24 12:55 24.65143 110.99696 34120 ft 430 kts 277°
2026-04-24 12:56 24.65694 110.93207 34120 ft 428 kts 277°
2026-04-24 12:56 24.66242 110.86704 34120 ft 426 kts 277°
2026-04-24 12:57 24.67373 110.80388 34119 ft 422 kts 292°
2026-04-24 12:57 24.70149 110.74792 34121 ft 420 kts 308°
2026-04-24 12:58 24.74153 110.70188 34120 ft 419 kts 318°
2026-04-24 12:58 24.78379 110.65758 34120 ft 418 kts 317°
2026-04-24 12:59 24.82554 110.61320 34120 ft 418 kts 317°
2026-04-24 12:59 24.86719 110.56921 34120 ft 418 kts 317°
2026-04-24 13:00 24.90893 110.52506 34120 ft 418 kts 317°
2026-04-24 13:00 24.95103 110.48055 34120 ft 418 kts 317°
2026-04-24 13:01 24.99258 110.43657 34120 ft 417 kts 317°
2026-04-24 13:01 25.03424 110.39250 34119 ft 414 kts 316°
2026-04-24 13:02 25.07573 110.34871 34120 ft 411 kts 316°
2026-04-24 13:02 25.11689 110.30521 34120 ft 411 kts 315°
2026-04-24 13:03 25.15815 110.26154 34120 ft 411 kts 315°
2026-04-24 13:03 25.19920 110.21807 34120 ft 411 kts 315°
2026-04-24 13:04 25.24056 110.17461 34120 ft 411 kts 315°
2026-04-24 13:04 25.28210 110.13121 34120 ft 411 kts 315°
2026-04-24 13:05 25.32325 110.08807 34120 ft 411 kts 315°
2026-04-24 13:05 25.36465 110.04465 34120 ft 411 kts 315°
2026-04-24 13:06 25.40610 110.00112 34120 ft 411 kts 315°
2026-04-24 13:06 25.44760 109.95750 34120 ft 411 kts 315°
2026-04-24 13:07 25.48879 109.91415 34120 ft 411 kts 315°
2026-04-24 13:07 25.53016 109.87058 34120 ft 411 kts 315°
2026-04-24 13:08 25.57152 109.82697 34120 ft 411 kts 315°
2026-04-24 13:08 25.61268 109.78352 34120 ft 411 kts 315°
2026-04-24 13:09 25.67452 109.71816 34120 ft 411 kts 315°
2026-04-24 13:09 25.71584 109.67444 34120 ft 411 kts 315°
2026-04-24 13:10 25.75642 109.63016 34117 ft 411 kts 310°
2026-04-24 13:10 25.78510 109.57584 34121 ft 410 kts 289°
2026-04-24 13:11 25.80091 109.51497 34119 ft 411 kts 287°
2026-04-24 13:11 25.81731 109.45463 34119 ft 411 kts 287°
2026-04-24 13:12 25.83345 109.39391 34120 ft 411 kts 287°
2026-04-24 13:12 25.84952 109.33307 34120 ft 411 kts 287°
2026-04-24 13:13 25.86547 109.27241 34120 ft 411 kts 287°
2026-04-24 13:13 25.88136 109.21177 34120 ft 411 kts 287°
2026-04-24 13:14 25.89735 109.15060 34120 ft 410 kts 287°
2026-04-24 13:14 25.91310 109.09021 34120 ft 409 kts 287°
2026-04-24 13:15 25.92891 109.02956 34120 ft 408 kts 287°
2026-04-24 13:15 25.94489 108.96967 34120 ft 407 kts 287°
2026-04-24 13:16 25.96094 108.90936 34120 ft 406 kts 287°
2026-04-24 13:16 25.97690 108.84919 34120 ft 407 kts 287°
2026-04-24 13:17 25.99275 108.78935 34120 ft 407 kts 287°
2026-04-24 13:17 26.00875 108.72881 34120 ft 407 kts 287°
2026-04-24 13:18 26.02465 108.66899 34132 ft 406 kts 287°
2026-04-24 13:18 26.04070 108.60865 34154 ft 407 kts 287°
2026-04-24 13:19 26.05667 108.54844 34181 ft 407 kts 287°
2026-04-24 13:19 26.07263 108.48819 34214 ft 407 kts 287°
2026-04-24 13:20 26.08852 108.42818 34227 ft 407 kts 288°
2026-04-24 13:20 26.10947 108.36985 34229 ft 407 kts 296°
2026-04-24 13:21 26.13385 108.31328 34228 ft 407 kts 295°
2026-04-24 13:21 26.15795 108.25654 34256 ft 406 kts 295°
2026-04-24 13:22 26.18241 108.19961 34255 ft 407 kts 295°
2026-04-24 13:22 26.20665 108.14326 34255 ft 407 kts 295°
2026-04-24 13:23 26.23101 108.08663 34255 ft 406 kts 295°
2026-04-24 13:23 26.25547 108.02977 34255 ft 406 kts 295°
2026-04-24 13:24 26.27978 107.97321 34255 ft 406 kts 295°
2026-04-24 13:24 26.30407 107.91663 34255 ft 406 kts 295°
2026-04-24 13:25 26.32839 107.85990 34255 ft 406 kts 295°
2026-04-24 13:25 26.35259 107.80340 34255 ft 406 kts 295°
2026-04-24 13:26 26.37690 107.74654 34255 ft 406 kts 295°
2026-04-24 13:26 26.40113 107.68980 34255 ft 406 kts 295°
2026-04-24 13:27 26.42548 107.63273 34255 ft 406 kts 295°
2026-04-24 13:27 26.44956 107.57618 34255 ft 406 kts 295°
2026-04-24 13:28 26.47378 107.51925 34255 ft 406 kts 295°
2026-04-24 13:28 26.49791 107.46236 34255 ft 406 kts 295°
2026-04-24 13:29 26.52211 107.40518 34255 ft 406 kts 295°
2026-04-24 13:29 26.54609 107.34846 34255 ft 406 kts 295°
2026-04-24 13:30 26.57032 107.29123 34255 ft 407 kts 295°
2026-04-24 13:30 26.59431 107.23453 34255 ft 406 kts 295°
2026-04-24 13:31 26.61848 107.17731 34255 ft 406 kts 295°
2026-04-24 13:31 26.64257 107.12031 34255 ft 406 kts 295°
2026-04-24 13:32 26.66680 107.06340 34255 ft 406 kts 295°
2026-04-24 13:32 26.69098 107.00645 34255 ft 406 kts 295°
2026-04-24 13:33 26.71511 106.94955 34255 ft 406 kts 295°
2026-04-24 13:33 26.73938 106.89270 34254 ft 406 kts 297°
2026-04-24 13:34 26.77157 106.84098 34255 ft 410 kts 312°
2026-04-24 13:34 26.81659 106.80161 34254 ft 416 kts 327°
2026-04-24 13:35 26.84258 106.78780 34254 ft 421 kts 338°
2026-04-24 13:35 26.87108 106.77919 34258 ft 425 kts 346°
2026-04-24 13:35 26.93013 106.77344 34255 ft 430 kts 354°
2026-04-24 13:36 26.98941 106.77035 34255 ft 430 kts 353°
2026-04-24 13:36 27.04930 106.76689 34255 ft 432 kts 353°
2026-04-24 13:37 27.10893 106.76384 34255 ft 432 kts 353°
2026-04-24 13:37 27.16966 106.76074 34255 ft 441 kts 353°
2026-04-24 13:38 27.23118 106.75755 34255 ft 450 kts 353°
2026-04-24 13:38 27.29414 106.75416 34255 ft 459 kts 353°
2026-04-24 13:39 27.35828 106.75065 34254 ft 464 kts 353°
2026-04-24 13:39 27.42258 106.74921 34255 ft 467 kts 356°
2026-04-24 13:40 27.48749 106.75008 34255 ft 465 kts 356°
2026-04-24 13:40 27.55158 106.75047 34255 ft 466 kts 356°
2026-04-24 13:41 27.61636 106.75079 34254 ft 466 kts 356°
2026-04-24 13:41 27.68094 106.75065 34255 ft 466 kts 355°
2026-04-24 13:42 27.74528 106.75015 34255 ft 465 kts 355°
2026-04-24 13:42 27.80991 106.74996 34255 ft 466 kts 355°
2026-04-24 13:43 27.87458 106.74988 34255 ft 466 kts 355°
2026-04-24 13:43 27.93941 106.74978 34256 ft 467 kts 356°
2026-04-24 13:44 28.00431 106.74979 34258 ft 470 kts 356°
2026-04-24 13:44 28.03642 106.74969 34235 ft 459 kts 355°
2026-04-24 13:44 28.06769 106.74950 34209 ft 442 kts 355°
2026-04-24 13:45 28.09769 106.74935 34193 ft 422 kts 355°
2026-04-24 13:45 28.12640 106.74927 34176 ft 409 kts 355°
2026-04-24 13:45 28.18331 106.74863 34148 ft 411 kts 354°
2026-04-24 13:46 28.24047 106.74653 34148 ft 416 kts 353°
2026-04-24 13:46 28.29840 106.74889 34148 ft 423 kts 359°
2026-04-24 13:47 28.35640 106.74481 34150 ft 416 kts 347°
2026-04-24 13:47 28.41338 106.73631 34134 ft 417 kts 349°
2026-04-24 13:48 28.47139 106.72886 34148 ft 424 kts 348°
2026-04-24 13:48 28.53030 106.71987 34149 ft 432 kts 348°
2026-04-24 13:49 28.59012 106.71119 34147 ft 440 kts 348°
2026-04-24 13:49 28.65104 106.70241 34148 ft 444 kts 348°
2026-04-24 13:50 28.71247 106.69365 34146 ft 453 kts 351°
2026-04-24 13:50 28.71516 106.69342 34145 ft 453 kts 352°
2026-04-24 13:51 28.74736 106.69240 34148 ft 459 kts 356°
2026-04-24 13:51 28.81171 106.69313 34025 ft 469 kts 356°
2026-04-24 13:52 28.84417 106.69325 33791 ft 470 kts 356°
2026-04-24 13:52 28.87673 106.69320 33374 ft 469 kts 356°
2026-04-24 13:52 28.90874 106.69297 32895 ft 463 kts 355°
2026-04-24 13:52 28.94064 106.69270 32402 ft 459 kts 355°
2026-04-24 13:53 28.97262 106.69249 31763 ft 456 kts 356°
2026-04-24 13:53 29.00403 106.69235 31138 ft 453 kts 356°
2026-04-24 13:53 29.03522 106.69225 30514 ft 449 kts 356°
2026-04-24 13:53 29.06609 106.69216 29891 ft 446 kts 356°
2026-04-24 13:54 29.09695 106.69182 29208 ft 445 kts 354°
2026-04-24 13:54 29.12788 106.68863 28153 ft 450 kts 349°
2026-04-24 13:54 29.15840 106.68246 26833 ft 454 kts 343°
2026-04-24 13:54 29.18875 106.67297 25551 ft 455 kts 340°
2026-04-24 13:55 29.21893 106.66270 24249 ft 457 kts 341°
2026-04-24 13:55 29.24922 106.65264 22936 ft 459 kts 341°
2026-04-24 13:55 29.27951 106.64262 21144 ft 471 kts 342°
2026-04-24 13:55 29.31027 106.62914 19626 ft 481 kts 329°
2026-04-24 13:56 29.33602 106.60721 19736 ft 439 kts 313°
2026-04-24 13:56 29.35426 106.58114 19138 ft 421 kts 300°
2026-04-24 13:56 29.36555 106.55067 17786 ft 420 kts 282°
2026-04-24 13:56 29.36824 106.51757 16416 ft 419 kts 265°
2026-04-24 13:57 29.36212 106.48573 15088 ft 417 kts 247°
2026-04-24 13:57 29.34745 106.45782 14120 ft 406 kts 229°
2026-04-24 13:57 29.32655 106.43722 13133 ft 398 kts 211°
2026-04-24 13:57 29.30157 106.42500 12168 ft 392 kts 197°
2026-04-24 13:58 29.27577 106.41655 11192 ft 386 kts 196°
2026-04-24 13:58 29.25021 106.40804 10209 ft 382 kts 197°
2026-04-24 13:58 29.22458 106.40042 9218 ft 377 kts 192°
2026-04-24 13:58 29.19897 106.39826 8203 ft 374 kts 174°
2026-04-24 13:59 29.17457 106.40724 7208 ft 371 kts 150°
2026-04-24 13:59 29.15599 106.42669 6393 ft 364 kts 127°
2026-04-24 13:59 29.14205 106.45040 5720 ft 352 kts 124°
2026-04-24 13:59 29.13078 106.47443 5292 ft 336 kts 110°
2026-04-24 14:00 29.12727 106.50017 4860 ft 321 kts 85°
2026-04-24 14:00 29.13175 106.52427 4514 ft 306 kts 75°
2026-04-24 14:00 29.13829 106.54687 4262 ft 289 kts 64°
2026-04-24 14:00 29.14955 106.56503 4025 ft 273 kts 44°
2026-04-24 14:01 29.16333 106.57886 3804 ft 258 kts 37°
2026-04-24 14:01 29.17799 106.58956 3551 ft 244 kts 23°
2026-04-24 14:01 29.19358 106.59544 3325 ft 231 kts 12°
2026-04-24 14:01 29.20877 106.59822 3291 ft 211 kts
2026-04-24 14:02 29.22356 106.59799 3295 ft 214 kts 355°
2026-04-24 14:02 29.23825 106.59679 3293 ft 214 kts 355°
2026-04-24 14:02 29.26648 106.59450 3291 ft 214 kts 355°
2026-04-24 14:02 29.45097 106.57880 3292 ft 214 kts 354°
2026-04-24 14:03 29.46573 106.57761 3292 ft 214 kts 357°
2026-04-24 14:03 29.48047 106.57938 3293 ft 215 kts 14°
2026-04-24 14:03 29.49468 106.58447 3294 ft 214 kts 17°
2026-04-24 14:03 29.50908 106.58967 3292 ft 216 kts 16°
2026-04-24 14:04 29.52344 106.59485 3293 ft 215 kts 17°
2026-04-24 14:04 29.53754 106.59991 3293 ft 215 kts 16°
2026-04-24 14:04 29.55191 106.60491 3293 ft 215 kts 16°
2026-04-24 14:04 29.56626 106.60991 3293 ft 215 kts 16°
2026-04-24 14:05 29.58052 106.61486 3293 ft 215 kts 16°
2026-04-24 14:05 29.59485 106.61985 3293 ft 215 kts 16°
2026-04-24 14:05 29.60908 106.62479 3289 ft 212 kts 16°
2026-04-24 14:05 29.62293 106.62959 3193 ft 198 kts 15°
2026-04-24 14:06 29.63529 106.63387 2994 ft 182 kts 16°
2026-04-24 14:06 29.64734 106.63810 2504 ft 181 kts 15°
2026-04-24 14:06 29.65924 106.64214 2119 ft 174 kts 15°
2026-04-24 14:06 29.67041 106.64595 1944 ft 165 kts 15°
2026-04-24 14:07 29.68148 106.64988 1965 ft 175 kts 16°
2026-04-24 14:07 29.69342 106.65421 1776 ft 183 kts 16°
2026-04-24 14:07 29.70549 106.65835 1525 ft 175 kts 15°
2026-04-24 14:07 29.71673 106.66223 1376 ft 163 kts 15°
2026-04-24 14:08 29.72624 106.66537 1374 ft 117 kts 17°
2026-04-24 14:08 29.73189 106.66747 1374 ft 52 kts 18°
2026-04-24 14:08 29.73392 106.66817 1374 ft 26 kts 15°
2026-04-24 14:08 29.73560 106.66854 1374 ft 19 kts
2026-04-24 14:09 29.73602 106.66853 1374 ft 17 kts 357°
2026-04-24 14:09 29.73745 106.66785 1374 ft 11 kts 267°
2026-04-24 14:09 29.73697 106.66724 1374 ft 10 kts 202°
2026-04-24 14:09 29.73590 106.66685 1374 ft 27 kts 197°
2026-04-24 14:10 29.73366 106.66606 1374 ft 33 kts 197°
2026-04-24 14:10 29.73159 106.66535 1374 ft 28 kts 197°
2026-04-24 14:10 29.72982 106.66474 1374 ft 24 kts 197°
2026-04-24 14:10 29.72823 106.66419 1374 ft 29 kts 197°
2026-04-24 14:11 29.72537 106.66317 1374 ft 53 kts 197°
2026-04-24 14:11 29.72211 106.66204 1374 ft 40 kts 198°
2026-04-24 14:11 29.71814 106.66057 1374 ft 20 kts 223°
2026-04-24 14:12 29.71823 106.65927 1374 ft 15 kts 291°
2026-04-24 14:12 29.71855 106.65806 1374 ft 19 kts 288°
2026-04-24 14:12 29.71905 106.65622 1374 ft 29 kts 287°
2026-04-24 14:12 29.71872 106.65538 1374 ft 11 kts 199°
2026-04-24 14:13 29.71730 106.65491 1374 ft 25 kts 195°
2026-04-24 14:13 29.71641 106.65458 1374 ft 4 kts 197°
2026-04-24 14:13 29.71620 106.65468 1374 ft 2 kts 136°
2026-04-24 14:13 29.71603 106.65498 1374 ft 3 kts 117°
2026-04-24 14:14 29.71599 106.65506 1374 ft 0 kts 118°